Carolina, PR

12:26 AM AST on February 24, 2017 (GMT -0400)
Luis Munoz Marin International

Weather History for TJSJ - February, 2015

Change the Weather History Date:

Wednesday, February 11, 2015

  Actual Average Record
Temperature  
Mean Temperature 84 °F 78 °F  
Max Temperature 91 °F 84 °F 93 °F (1992)
Min Temperature 77 °F 72 °F 63 °F (1961)
Degree Days  
Heating Degree Days 0 0  
Month to date heating degree days 0 0  
Since 1 July heating degree days 0 0  
Cooling Degree Days 19 13  
Month to date cooling degree days 160 143  
Year to date cooling degree days 598 534  
Growing Degree Days 34 (Base 50)    
Moisture  
Dew Point 70 °F    
Average Humidity 69    
Maximum Humidity 85    
Minimum Humidity 52    
Precipitation  
Precipitation 0.00 in 0.09 in 1.75 in (1952)
Month to date precipitation 0.26 1.01  
Year to date precipitation 5.38 4.77  
Sea Level Pressure  
Sea Level Pressure 29.86 in    
Wind  
Wind Speed 5 mph (SSW)    
Max Wind Speed 13 mph    
Max Gust Speed 21 mph    
Visibility 10 miles    
Events      
T = Trace of Precipitation, MM = Missing Value Source: NWS Daily Summary

Daily Weather History Graph

Daily Weather History Graph

Search for Another Location

Airport or City:

Trip Planner

Search our weather history database for the weather conditions in past years. The results will help you decide how hot, cold, wet, or windy it might be!

Date:

Astronomy

Feb. 11, 2015 Rise Set
Actual Time 6:53 AM AST 6:22 PM AST
Civil Twilight 6:31 AM AST 6:45 PM AST
Nautical Twilight 6:05 AM AST 7:11 PM AST
Astronomical Twilight 5:39 AM AST 7:36 PM AST
Moon No Moon Rise 11:39 AM AST (2/11)
Length of Visible Light 12h 14m
Length of Day
11h 29m
Waning Gibbous, 55% of the Moon is Illuminated
Feb 11
Waning Gibbous
Feb 11
Last Quarter
Feb 18
New
Feb 25
First Quarter
Mar 5
Full

Hourly Weather History & Observations

Time (AST) Temp. Heat Index Dew Point Humidity Pressure Visibility Wind Dir Wind Speed Gust Speed Precip Events Conditions
12:56 AM 77.0 °F - 70.0 °F 79% 29.84 in 10.0 mi Calm Calm - N/A   Clear
1:56 AM 77.0 °F - 69.1 °F 76% 29.81 in 10.0 mi SSE 6.9 mph - N/A   Clear
2:56 AM 78.1 °F - 69.1 °F 74% 29.80 in 10.0 mi Variable 3.5 mph - N/A   Partly Cloudy
3:56 AM 79.0 °F - 68.0 °F 69% 29.80 in 10.0 mi SW 3.5 mph - N/A   Clear
4:56 AM 78.1 °F - 69.1 °F 74% 29.80 in 10.0 mi SW 4.6 mph - N/A   Partly Cloudy
5:56 AM 78.1 °F - 69.1 °F 74% 29.83 in 10.0 mi Calm Calm - N/A   Partly Cloudy
6:56 AM 77.0 °F - 70.0 °F 79% 29.85 in 10.0 mi South 4.6 mph - N/A   Partly Cloudy
7:56 AM 79.0 °F - 71.1 °F 77% 29.86 in 10.0 mi SSE 6.9 mph - N/A   Scattered Clouds
8:56 AM 82.0 °F 86.3 °F 71.1 °F 69% 29.88 in 10.0 mi Variable 4.6 mph - N/A   Scattered Clouds
9:56 AM 84.9 °F 89.4 °F 70.0 °F 61% 29.89 in 10.0 mi SSW 5.8 mph - N/A   Scattered Clouds
10:56 AM 87.1 °F 91.3 °F 69.1 °F 55% 29.89 in 10.0 mi South 9.2 mph 19.6 mph N/A   Partly Cloudy
11:56 AM 90.0 °F 94.5 °F 69.1 °F 50% 29.87 in 10.0 mi SSW 8.1 mph - N/A   Partly Cloudy
12:56 PM 90.0 °F 94.5 °F 69.1 °F 50% 29.85 in 10.0 mi SW 8.1 mph - N/A   Scattered Clouds
1:56 PM 90.0 °F 94.5 °F 69.1 °F 50% 29.83 in 10.0 mi South 11.5 mph 17.3 mph N/A   Scattered Clouds
2:56 PM 88.0 °F 94.7 °F 72.0 °F 59% 29.82 in 10.0 mi NNW 5.8 mph - N/A   Scattered Clouds
3:56 PM 84.9 °F 91.4 °F 73.0 °F 67% 29.83 in 10.0 mi West 4.6 mph - N/A   Scattered Clouds
4:56 PM 84.9 °F 91.4 °F 73.0 °F 67% 29.83 in 10.0 mi Variable 3.5 mph - N/A   Scattered Clouds
5:56 PM 84.9 °F 89.4 °F 70.0 °F 61% 29.85 in 10.0 mi Variable 4.6 mph - N/A   Scattered Clouds
6:56 PM 82.9 °F 87.5 °F 71.1 °F 67% 29.87 in 10.0 mi South 5.8 mph - N/A   Scattered Clouds
7:56 PM 82.9 °F 87.5 °F 71.1 °F 67% 29.88 in 10.0 mi Variable 3.5 mph - N/A   Partly Cloudy
8:56 PM 81.0 °F 84.9 °F 71.1 °F 72% 29.91 in 10.0 mi Calm Calm - N/A   Clear
9:56 PM 81.0 °F 84.9 °F 71.1 °F 72% 29.93 in 10.0 mi Calm Calm - N/A   Partly Cloudy
10:56 PM 78.1 °F - 73.9 °F 87% 29.94 in 10.0 mi WNW 6.9 mph - N/A   Scattered Clouds
11:56 PM 78.1 °F - 72.0 °F 81% 29.94 in 10.0 mi WSW 9.2 mph - N/A   Scattered Clouds